{"data":{"norad_id":62420,"intl_designator":"2024-249M","name":"STARLINK-11434 [DTC]","alt_names":[],"object_type":"PAYLOAD","status":"ACTIVE","operator":null,"country":"US","launch_date":"2024-12-23","launch_site_code":"AFETR","launch_vehicle":null,"mission":null,"orbit_class":"UNKNOWN","rcs_meters":null,"size_class":null,"mass_kg":null,"dimensions":null,"purposes":["comms"],"wikipedia_slug":null,"has_3d_model":false,"image_url":null,"decayed_at":null,"tle_current":{"epoch":"2026-05-25T02:08:28.486176Z","epoch_age_seconds":77923,"freshness":"FRESH","line1":"1 62420U 24249M   26145.08921859  .00240606  00000+0  18213-2 0  9999","line2":"2 62420  43.0005  67.3758 0006401 284.2411  75.7746 15.70868871 81496","mean_motion":15.70868871,"eccentricity":0.0006401,"inclination_deg":43.0005,"raan_deg":67.3758,"arg_perigee_deg":284.2411,"mean_anomaly_deg":75.7746,"bstar":0.0018213,"rev_number":8149,"period_min":91.669013663967,"perigee_km":352.10175894792,"apogee_km":360.72332927429,"semimajor_km":6734.5495441111,"source":"CELESTRAK","updated_at":"2026-05-25T13:38:19.654175Z"}}}